Terre Haute, IN

1:02 PM EST on December 07, 2019 (GMT -0500)
Terre Haute International-Hulman

Weather History for KHUF - October, 2019

Change the Weather History Date:

Monday, October 14, 2019

  Actual Average Record
Temperature  
Mean Temperature 50 °F 55 °F  
Max Temperature 65 °F 67 °F 87 °F (1975)
Min Temperature 34 °F 43 °F 23 °F (1988)
Degree Days  
Heating Degree Days 16 11  
Month to date heating degree days 123  
Since 1 July heating degree days 201  
Cooling Degree Days 0 0  
Month to date cooling degree days 12  
Year to date cooling degree days 990  
Moisture  
Dew Point 37 °F    
Average Humidity 70    
Maximum Humidity 100    
Minimum Humidity 31    
Precipitation  
Precipitation 0.00 in 0.12 in 1.34 in (1954)
Month to date precipitation 1.92 1.59  
Year to date precipitation 39.85 36.29  
Sea Level Pressure  
Sea Level Pressure 30.08 in    
Wind  
Wind Speed 4 mph (West)    
Max Wind Speed 13 mph    
Max Gust Speed 22 mph    
Visibility 10 miles    
Events      
T = Trace of Precipitation, MM = Missing Value Source: NWS Daily Summary

Daily Weather History Graph

Daily Weather History Graph

Search for Another Location

Airport or City:

Astronomy

Oct. 14, 2019 Rise Set
Actual Time 7:57 AM EDT 7:11 PM EDT
Civil Twilight 7:30 AM EDT 7:38 PM EDT
Nautical Twilight 6:59 AM EDT 8:10 PM EDT
Astronomical Twilight 6:28 AM EDT 8:41 PM EDT
Moon 8:01 PM EDT (10/14) 8:29 AM EDT (10/14)
Length of Visible Light 12h 08m
Length of Day
11h 14m
Waxing Gibbous, 99% of the Moon is Illuminated
Oct 14
Waxing Gibbous
Oct 21
Last Quarter
Oct 27
New
Nov 4
First Quarter
Nov 12
Full

Hourly Weather History & Observations

Time (EDT) Temp. Windchill Dew Point Humidity Pressure Visibility Wind Dir Wind Speed Gust Speed Precip Events Conditions
12:53 AM 48.9 °F - 41.0 °F 74% 29.99 in 10.0 mi NW 4.6 mph - N/A   Clear
1:53 AM 48.0 °F - 39.0 °F 71% 29.99 in 10.0 mi NNW 5.8 mph - N/A   Clear
2:53 AM 44.1 °F 42.5 °F 37.9 °F 79% 30.01 in 10.0 mi North 3.5 mph - N/A   Clear
3:53 AM 39.9 °F - 37.0 °F 89% 30.02 in 10.0 mi Calm Calm - N/A   Clear
4:53 AM 39.0 °F - 37.0 °F 93% 30.03 in 10.0 mi Calm Calm - N/A   Clear
5:53 AM 36.0 °F - 35.1 °F 97% 30.05 in 10.0 mi Calm Calm - N/A   Clear
6:53 AM 35.1 °F - 33.1 °F 92% 30.06 in 10.0 mi Calm Calm - N/A   Clear
7:53 AM 35.1 °F - 34.0 °F 96% 30.09 in 10.0 mi Calm Calm - N/A   Clear
8:53 AM 37.9 °F - 36.0 °F 93% 30.10 in 10.0 mi Calm Calm - N/A   Clear
9:53 AM 48.0 °F - 42.1 °F 80% 30.12 in 10.0 mi Calm Calm - N/A   Clear
10:53 AM 53.1 °F - 37.0 °F 55% 30.14 in 10.0 mi SSW 3.5 mph - N/A   Clear
11:53 AM 55.9 °F - 35.1 °F 45% 30.14 in 10.0 mi Variable 3.5 mph - N/A   Clear
12:53 PM 59.0 °F - 37.0 °F 44% 30.14 in 10.0 mi WSW 9.2 mph - N/A   Clear
1:53 PM 62.1 °F - 37.9 °F 41% 30.12 in 10.0 mi West 8.1 mph 21.9 mph N/A   Clear
3:53 PM 64.0 °F - 34.0 °F 33% 30.09 in 10.0 mi West 9.2 mph - N/A   Clear
4:53 PM 64.0 °F - 34.0 °F 33% 30.08 in 10.0 mi WSW 9.2 mph - N/A   Clear
5:53 PM 64.0 °F - 34.0 °F 33% 30.08 in 10.0 mi West 4.6 mph - N/A   Clear
6:53 PM 61.0 °F - 34.0 °F 36% 30.08 in 10.0 mi WNW 3.5 mph - N/A   Clear
7:53 PM 50.0 °F - 44.1 °F 80% 30.09 in 10.0 mi Calm Calm - N/A   Clear
8:53 PM 46.0 °F - 41.0 °F 83% 30.09 in 10.0 mi Calm Calm - N/A   Clear
9:53 PM 43.0 °F - 39.0 °F 86% 30.09 in 10.0 mi Calm Calm - N/A   Clear
10:53 PM 42.1 °F - 39.9 °F 92% 30.09 in 10.0 mi Calm Calm - N/A   Clear
11:53 PM 41.0 °F - 37.9 °F 89% 30.09 in 10.0 mi Calm Calm - N/A   Clear